Regional Weather Roundup
Issued by NWS

Home | Current Version | Previous Version | Graphics & Text | Print | Product List | Glossary On
Versions: 1 2 3 4 5 6 7 8 9 10 11 12 13 14 15 16 17 18 19 20 21 22 23 24 25 26 27 28 29 30 31 32 33 34 35 36 37 38 39 40 41 42 43 44 45 46 47 48 49 50
662
ASUS45 KSLC 241110
RWRUT

UTAH REGIONAL WEATHER ROUNDUP
NATIONAL WEATHER SERVICE SALT LAKE CITY UT
400 AM MST TUE JAN 24 2017

UTZ001>011-023>025-241200-

NORTHERN UTAH

CITY           SKY/WX    TMP DP  RH WIND       PRES   REMARKS
BRIGHAM CITY     N/A     28  26  93 CALM      29.67S
HILL AFB       CLOUDY    25  20  80 S8        29.66R WCI  17
LOGAN          CLOUDY   N/A N/A N/A N3        29.65R
OGDEN          CLOUDY    26  22  84 S10       29.67R WCI  16
SALT LAKE CITY CLOUDY    31  23  72 NE8       29.69R WCI  23
TOOELE VALLEY  CLOUDY    30  25  80 N6        29.70R WCI  24
WENDOVER       MOCLDY    19  10  68 NW10      29.71R WCI   8
HEBER CITY     MOCLDY    19  18  93 CALM      29.61S
WEST JORDAN    CLOUDY    28  28 100 CALM      29.69R

$$

UTZ011>015-024>027-241200-

CENTRAL/NORTHEAST UTAH

CITY           SKY/WX    TMP DP  RH WIND       PRES   REMARKS
PROVO AIRPORT  PTCLDY    24  23  96 NW5       29.68R WCI  18
MOAB/CANYONLAN MOCLDY    30  28  92 W5        29.57S WCI  25
DELTA          CLOUDY    23  21  93 W6        29.68S WCI  16
PRICE          PTCLDY    24  16  71 N9        29.56S WCI  14
ROOSEVELT      CLOUDY    18  16  93 CALM      29.60R
VERNAL         FOG       23  21  92 S3        29.57S VSB 1/4

$$

UTZ013>016-019>022-027-241200-

SOUTHERN UTAH

CITY           SKY/WX    TMP DP  RH WIND       PRES   REMARKS
BRYCE CANYON   CLOUDY    13   8  81 N7        29.58R WCI   3
CEDAR CITY     FOG       15  13  91 CALM      29.65R VSB 1/4
MILFORD        PTCLDY    21  15  78 W3        29.67R
ST GEORGE      CLOUDY    36  30  80 S7        29.75R WCI  30
HANKSVILLE     MOCLDY    27  23  86 MISG      29.63R
BLANDING       CLOUDY    28  28 100 S6        29.66R VSB 3/4 WCI  22

$$

REGIONAL REPORTS     COLORADO/ARIZONA

CITY           SKY/WX    TMP DP  RH WIND       PRES   REMARKS
CRAIG, CO      CLOUDY    27  19  72 SW8       29.53S WCI  19
GRAND JUNCTION CLOUDY    29  28  96 NW5       29.57R WCI  24
RIFLE, CO      CLOUDY    26  26 100 W3        29.55S
MONTROSE, CO   CLOUDY    29  23  78 CALM      29.58R
CORTEZ, CO     CLOUDY    23  22  96 E3        29.59F
COLORADO CITY  LGT SNOW  30  30 100 NW5       29.71R WCI  25
PAGE, AZ       FLURRIES  33  26  75 W5        29.63F WCI  29
GRAND CANYON   CLOUDY    22  20  92 SW10      29.67R WCI  11
KINGMAN, AZ    PTCLDY    33  29  85 S7        29.76S WCI  27
FLAGSTAFF, AZ  LGT SNOW  22  20  92 SW9       29.67R FOG     WCI  12

$$

REGIONAL REPORTS    NEVADA/IDAHO/WYOMING

CITY           SKY/WX    TMP DP  RH WIND       PRES   REMARKS
LAS VEGAS, NV  MOCLDY    40  33  76 E3        29.77R
ELY, NY        CLOUDY    -4  -7  87 S7        29.71R WCI -18
ELKO, NV       CLOUDY    24  17  74 SW9       29.74S WCI  14
POCATELLO, ID  LGT SNOW  24  22  91 SW13      29.66R FOG     WCI  12
BURLEY, ID     MIX PCPN  28  22  78 W16G24    29.66R WCI  16
FORT BRIDGER,    N/A     19  18  98 W18       29.57R WCI   3
EVANSTON, WY   CLOUDY    18  13  80 SW18      29.56R HAZE    WCI   2
ROCK SPRINGS,  LGT SNOW  20  17  88 W21       29.52S FOG     WCI   4

$$




USA.gov is the U.S. government's official web portal to all federal, state and local government web resources and services.